Tracking 23764 objects as of 17-Oct-2021
HD Live streaming from Space Station
objects crossing your sky now

SL-6 R/B(2)

Track SL-6 R/B(2) now!


NORAD ID: 7629
Int'l Code: 1975-007D
Perigee: 5,083.5 km
Apogee: 35,243.4 km
Inclination: 69.2 °
Period: 716.9 minutes
Semi major axis: 26534 km
RCS: 7.0447 m2 (large)
Launch date: January 30, 1975
Source: Commonwealth of Independent States (former USSR) (CIS)
Launch site: PLESETSK MISSILE AND SPACE COMPLEX (PKMTR)

Note: This is a ROCKET BODY
aabbcc
Your satellite tracking list
Your tracking list is empty




NASA's NSSDC Master Catalog

Two Line Element Set (TLE):
1 07629U 75007D   21289.22164442  .00000070  00000-0  00000-0 0  9997
2 07629  69.1546 320.5385 5683153 337.2865 242.4966  2.00857609203744
Source of the keplerian elements: AFSPC